Regional Weather Roundup
Issued by NWS Kansas City/Pleasant Hill, MO

Home | Current Version | Previous Version | Graphics & Text | Print | Product List | Glossary Off
Versions: 1 2 3 4 5 6 7 8 9 10 11 12 13 14 15 16 17 18 19 20 21 22 23 24 25 26 27 28 29 30 31 32 33 34 35 36 37 38 39 40 41 42 43 44 45 46 47 48 49 50

000
ASUS43 KEAX 110410
RWREAX

WEATHER ROUNDUP FOR EASTERN KANSAS AND NORTHWEST MISSOURI
NATIONAL WEATHER SERVICE KANSAS CITY/PLEASANT HILL MO
1000 PM CST WED FEB 10 2016

KSZ040-057-103>105-MOZ028-029-037-043-110500-
...KANSAS CITY METROPOLITAN AREA...

CITY           SKY/WX    TMP DP  RH WIND       PRES   REMARKS
K.C. INTL      CLOUDY    28  22  78 E14       30.02R WCI  17
K.C. DOWNTOWN  CLEAR     30  22  72 NE13      30.03R WCI  20
LEES SUMMIT    CLEAR     28  20  71 E8        30.01S WCI  20
OLATHE - IXD   CLEAR     35  21  56 E7        30.00R WCI  29
OLATHE - OJC   CLEAR     34  19  54 E7        30.00R WCI  28
LAWRENCE       CLEAR     34  21  59 E6        30.01R WCI  29

$$

MOZ001>008-011>017-020>025-030>033-038>040-044>046-053-054-110500-
...NORTHERN AND CENTRAL MISSOURI...

CITY           SKY/WX    TMP DP  RH WIND       PRES   REMARKS
ST. JOSEPH     CLOUDY    27  21  78 NE8       30.08R WCI  19
MOSBY          CLOUDY    28  23  80 E7        30.05R WCI  21
WARRENSBURG    CLOUDY    27  21  80 E6        30.03S WCI  20
WHITEMAN AFB   PTCLDY    26  21  81 SE9       30.02S WCI  17
CLINTON          N/A     30  23  74 E9        30.02S WCI  22
SEDALIA        PTCLDY    26  19  74 SE13      30.04F WCI  15
WARSAW         NOT AVBL
CHILLICOTHE      N/A     25  19  78 NE9       30.12R WCI  15
KIRKSVILLE     CLOUDY    21  16  81 NE9       30.14R WCI  11

$$

MOZ041-047>049-056>058-063>065-088>090-097-110500-
...EASTERN AND SOUTHERN MISSOURI...

CITY           SKY/WX    TMP DP  RH WIND       PRES   REMARKS
ST. LOUIS INTL CLOUDY    24  18  77 SE5       30.16R WCI  18
SPIRIT OF STL  CLOUDY    23  19  85 E3        30.15R
COLUMBIA       CLOUDY    23  19  85 E12       30.06F WCI  12
JEFFERSON CITY CLOUDY    25  19  78 E10       30.10S WCI  15
ROLLA          CLOUDY    23  17  78 E9        30.04S WCI  13
OSAGE BEACH    CLEAR     25  16  68 E7        30.05S WCI  17
SPRINGFIELD    CLEAR     37  20  50 SE10      29.96F WCI  30
BRANSON        MOCLDY    37  18  44 E7        29.99S WCI  32
JOPLIN         CLEAR     41  24  51 E10       29.94S WCI  35
WEST PLAINS    CLEAR     29  10  45 E7        30.05F WCI  22

$$

IAZ060-094-KSZ022-034>040-054-083-096-NEZ052-066-093-110500-
...KANSAS...SOUTHEAST NEBRASKA AND IOWA...

CITY           SKY/WX    TMP DP  RH WIND       PRES   REMARKS
TOPEKA         CLEAR     39  22  50 CALM      30.00R
MANHATTAN      CLOUDY    41  31  67 N5        30.02R
EMPORIA        CLEAR     41  29  62 NW8       29.96R
CHANUTE        CLEAR     37  27  67 N5        29.94S WCI  33
WICHITA        PTCLDY    50  30  46 N9        29.97R
OMAHA          CLOUDY    23  17  78 NE10      30.15R WCI  12
LINCOLN        CLEAR     25  21  85 NE14      30.12R WCI  13
FALLS CITY     CLOUDY    30  22  72 NE9       30.07R WCI  22
LAMONI         CLOUDY    21  17  84 NE12      30.12R WCI   9
DES MOINES     CLOUDY    18  10  71 NE6       30.18R WCI  10

$$




USA.gov is the U.S. government's official web portal to all federal, state and local government web resources and services.